Probability
11 9 6 5 4 3 3 3 3 4 4 4 2 2 4 5 6 6 6 7 6 4 5 7 7 8 7 5 5 6 8 9 8 7 6 4 2 0 0 0 0 0 0
12 10 7 5 4 3 3 4 4 5 6 6 4 4 6 7 7 7 7 8 7 5 5 6 7 7 7 6 5 5 6 7 7 6 6 5 3 1 0 0 0 0 0
12 11 9 6 5 4 5 6 7 8 8 7 6 6 7 8 8 9 9 9 8 7 6 6 6 6 6 6 6 6 6 5 5 5 6 6 4 2 1 1 0 0 0
11 11 10 8 7 7 7 8 8 8 8 7 7 7 7 8 9 9 8 8 8 7 6 6 6 6 6 6 7 8 8 7 5 5 6 7 6 4 4 3 1 0 0
10 10 10 11 11 10 9 8 9 8 8 8 9 8 7 7 7 6 5 6 7 7 6 6 6 6 6 5 6 7 8 9 8 7 7 7 7 6 6 5 3 1 1
11 11 12 13 13 12 10 10 10 9 10 11 11 10 7 5 4 2 3 4 5 6 6 6 5 4 4 4 3 3 5 7 8 9 8 8 8 8 7 6 4 3 2
12 12 13 13 13 12 11 11 10 10 10 11 11 10 7 3 1 0 1 2 4 5 6 6 4 3 3 3 3 2 3 4 5 6 8 9 10 10 8 7 6 5 4
12 13 12 11 11 11 10 9 9 8 8 8 7 6 5 3 1 0 0 1 3 4 6 6 5 4 3 3 4 5 4 3 2 3 5 8 10 9 8 7 6 6 5
12 13 14 13 12 11 9 8 8 7 6 5 5 5 4 2 1 0 0 1 3 4 4 4 3 3 2 2 3 5 6 5 3 2 3 4 5 5 5 5 6 6 5
15 17 18 17 15 12 9 7 7 7 7 6 6 6 5 4 1 0 1 2 3 3 2 1 1 1 1 1 2 4 5 6 4 3 3 2 2 2 3 4 5 6 6
19 20 20 18 15 11 8 6 5 7 8 8 7 7 5 3 2 0 1 2 2 1 0 0 0 0 0 0 1 1 3 4 5 5 5 4 3 3 3 4 4 5 5
19 19 18 16 13 11 9 7 6 7 7 7 8 6 3 1 1 0 0 1 1 0 0 0 0 0 0 0 0 0 1 2 4 5 6 5 4 4 4 3 2 2 2
18 18 16 14 12 11 10 9 8 7 7 7 7 6 2 0 0 0 0 0 0 0 0 0 0 0 0 0 0 0 0 1 4 6 6 6 6 5 4 2 1 0 0
18 16 13 11 11 10 9 8 7 7 7 6 6 5 3 1 0 0 0 0 0 0 0 0 0 0 0 0 0 0 0 2 5 6 6 6 6 6 3 1 0 0 0
16 14 11 10 9 8 7 6 5 5 5 4 4 5 4 1 0 0 0 0 0 0 0 0 0 0 0 0 0 0 1 3 5 6 6 6 6 6 3 1 0 0 0
13 11 9 9 8 7 6 5 3 3 2 2 2 3 2 1 0 0 0 0 0 0 0 0 0 0 0 0 0 0 1 3 5 6 6 6 6 6 3 1 0 0 0
11 9 8 7 7 7 6 6 4 3 1 1 1 1 1 0 0 0 0 0 0 0 0 0 0 0 0 0 0 0 0 1 3 4 4 5 5 5 4 2 1 0 0
9 8 7 6 6 6 6 6 5 3 1 0 0 0 0 0 0 0 0 0 0 0 0 0 0 0 0 0 0 0 0 0 1 1 1 2 3 3 3 3 2 1 0
9 8 7 6 6 6 5 5 3 1 1 0 0 0 0 0 0 0 0 0 0 0 0 0 0 0 0 0 0 0 0 0 0 0 0 0 1 1 2 3 2 1 1
7 6 5 5 4 4 3 2 1 0 0 0 0 0 0 0 0 0 0 0 0 0 0 0 0 0 0 0 0 0 0 0 0 0 0 0 0 0 1 1 2 3 2
2 2 2 2 1 1 1 0 0 0 0 0 0 0 0 0 0 0 0 0 0 0 0 0 0 0 0 0 0 0 0 0 0 0 0 0 0 0 0 1 2 3 3
0 0 0 0 0 0 0 0 0 0 0 0 0 0 0 0 0 0 0 0 0 0 0 0 0 0 0 0 0 0 0 0 0 0 0 0 0 0 0 0 1 1 2
0 0 0 0 0 0 0 0 0 0 0 0 0 0 0 0 0 0 0 0 0 0 0 0 0 0 0 0 0 0 0 0 0 0 0 0 0 0 0 0 0 0 1
0 0 0 0 0 0 0 0 0 0 0 0 0 0 0 0 0 0 0 0 0 0 0 0 0 0 0 0 0 0 0 0 0 0 0 0 0 0 0 0 0 0 0
0 0 0 0 0 0 0 0 0 0 0 0 0 0 0 0 0 0 0 0 0 0 0 0 0 0 0 0 0 0 0 0 0 0 0 0 0 0 0 0 0 0 1
0 0 0 0 0 0 0 0 0 0 0 0 0 0 0 0 0 0 0 0 0 0 0 0 0 0 0 0 0 0 0 0 0 0 0 0 0 0 0 0 0 1 1
Wind_Speed
5 4 3 3 3 2 2 2 1 1 1 1 1 1 1 1 1 1 1 1 1 0 1 0 1 1 0 1 1 1 1 2 3 3 2 2 2 3 2 2 2 2 2
5 4 3 3 2 2 2 2 1 1 1 1 1 1 1 1 1 1 1 1 1 1 1 0 1 1 1 1 1 1 1 2 3 4 2 2 2 3 2 2 2 1 2
4 4 3 2 2 3 2 2 2 1 1 1 1 0 0 1 1 1 1 1 1 1 1 1 2 1 2 2 1 1 1 1 2 2 3 2 2 2 2 2 2 2 2
4 4 4 4 3 3 2 2 2 2 1 1 1 1 1 0 1 1 1 0 0 1 1 1 2 2 2 2 2 2 1 1 1 2 2 2 2 2 1 2 2 1 2
4 4 4 3 3 2 2 2 2 2 2 2 1 1 1 1 0 0 1 1 0 1 1 1 1 1 1 2 1 1 1 1 1 2 2 2 2 2 2 2 2 2 1
5 5 4 4 3 3 3 2 2 2 1 1 1 1 1 0 0 1 1 1 1 1 1 2 2 2 2 2 2 2 1 2 2 2 2 3 4 3 2 2 1 1 2
5 4 4 4 4 4 3 2 2 2 2 1 1 1 1 1 1 1 2 1 1 1 1 2 2 2 2 2 3 3 3 3 4 3 4 4 4 3 2 2 2 2 2
4 4 4 4 4 4 3 3 3 2 2 2 2 1 1 1 1 1 1 1 1 2 2 2 2 2 2 2 2 3 3 3 3 3 4 5 4 4 4 3 3 2 2
5 4 4 5 4 4 4 3 3 2 2 1 1 2 2 2 2 2 2 1 1 2 2 2 2 2 3 2 2 3 4 4 3 3 4 5 5 4 2 1 1 1 2
5 4 4 4 4 4 4 3 2 2 2 2 1 2 2 2 2 2 3 2 1 1 2 2 2 2 3 2 2 2 3 4 4 4 3 4 3 3 2 3 3 2 2
4 4 3 4 4 4 3 3 2 2 2 1 1 1 2 2 2 2 3 2 2 2 2 2 2 3 3 3 2 3 4 4 3 3 3 2 2 2 2 1 2 2 2
4 3 3 3 3 3 3 2 2 3 2 2 1 1 1 1 1 2 3 3 3 2 2 2 2 3 4 4 3 3 4 3 2 1 2 2 2 2 2 2 1 1 2
4 3 2 2 2 3 4 3 2 2 2 2 2 2 2 1 1 2 2 3 2 1 1 2 3 3 3 2 3 3 3 2 1 1 2 2 2 2 2 1 1 1 1
4 3 2 2 2 2 2 3 3 3 3 2 3 2 2 2 2 1 1 1 1 1 1 1 2 2 2 3 3 3 2 2 2 2 2 2 1 1 1 1 1 1 1
3 2 2 2 2 1 1 1 3 3 4 5 4 3 3 3 4 4 3 2 1 1 0 0 1 1 2 2 2 2 2 1 1 1 2 1 1 1 1 1 0 0 0
3 2 2 2 2 2 2 0 1 2 3 4 5 4 3 4 4 3 3 2 2 1 1 1 1 1 2 2 2 2 2 2 2 2 1 1 1 1 1 1 0 0 1
4 3 2 3 3 3 3 3 1 1 1 1 2 3 3 3 3 3 2 1 1 2 1 1 1 2 2 2 2 2 2 2 1 1 1 1 1 1 1 1 1 1 1
3 3 2 2 3 3 3 3 3 2 1 1 1 2 2 2 2 3 3 2 1 0 1 2 2 2 2 2 2 2 2 2 1 1 1 2 2 2 2 2 2 2 2
3 2 2 2 2 2 1 2 2 2 1 1 1 1 1 1 1 1 2 1 2 2 2 2 2 2 2 2 2 2 2 2 2 2 2 2 2 2 2 2 2 2 2
2 3 2 2 2 1 1 1 1 1 1 1 1 1 1 1 0 1 1 2 2 3 3 3 2 3 2 2 2 2 2 2 2 2 2 2 2 2 3 3 3 2 2
2 2 2 2 2 1 2 2 2 2 2 2 2 2 3 2 2 3 3 3 3 3 3 3 3 3 3 2 2 3 3 3 3 2 2 3 3 3 3 3 3 3 3
2 2 2 2 2 2 2 2 2 2 3 3 2 2 3 2 2 3 3 3 3 3 3 3 3 3 3 3 3 3 3 3 3 3 3 3 3 3 3 3 3 3 3
2 2 1 1 2 2 2 2 2 2 2 2 2 2 2 2 2 2 3 3 2 2 2 3 3 3 3 3 3 3 3 4 4 4 4 4 3 3 4 4 4 4 4
2 2 2 2 2 2 2 2 2 2 3 2 2 2 2 2 3 3 3 2 2 2 2 2 3 4 4 3 3 3 3 4 4 4 5 5 4 4 4 4 4 5 4
2 2 2 2 2 2 2 2 2 2 2 2 2 3 3 3 3 3 3 3 3 3 4 3 3 3 4 5 4 4 4 4 4 4 4 4 5 5 5 5 4 4 4
2 2 2 2 2 2 2 3 3 3 3 3 3 3 3 3 3 3 3 3 3 3 4 3 4 4 5 4 5 5 4 4 4 4 4 3 4 4 5 4 5 4 4
Wind_Direction
177 180 180 186 188 179 177 191 195 204 216 230 230 221 229 236 216 187 206 172 174 293 334 292 285 296 297 306 278 252 235 218 243 269 257 273 273 281 291 277 272 273 268
187 179 181 185 173 172 186 202 197 193 198 210 212 209 230 229 207 186 215 186 185 230 270 299 297 283 284 280 263 264 257 237 239 268 289 293 279 285 287 286 292 289 279
179 174 169 174 183 192 202 199 183 176 166 143 122 132 216 207 192 197 203 211 207 224 243 250 269 273 281 275 261 261 268 267 240 250 281 293 291 308 306 303 303 302 296
166 168 175 187 196 198 192 187 184 175 165 179 175 166 146 171 199 192 179 176 264 290 276 254 257 247 258 264 261 259 257 263 254 255 269 284 286 297 294 288 300 300 307
165 174 191 191 181 179 183 187 185 179 181 178 160 169 166 157 187 143 164 160 211 319 327 310 294 293 284 265 275 265 255 251 262 262 267 275 283 285 275 273 278 296 297
172 182 182 171 170 188 195 185 176 177 152 138 162 195 190 230 42 174 171 177 199 254 301 309 307 320 320 320 306 290 254 246 253 252 257 262 270 268 272 272 282 305 298
174 177 178 172 180 192 192 173 181 184 161 170 194 191 211 231 192 192 193 166 205 251 271 291 302 319 327 323 332 328 313 281 240 234 251 258 260 257 259 262 241 241 259
173 181 182 176 183 185 178 184 190 184 177 194 209 210 221 272 268 233 208 184 229 256 259 260 268 287 296 308 316 319 306 294 266 245 251 263 267 258 237 243 247 250 267
181 188 189 185 185 183 187 195 191 182 184 205 216 207 208 256 246 222 183 189 231 270 276 274 262 273 289 294 291 298 305 304 295 282 270 273 278 280 254 232 233 240 275
195 194 187 183 183 188 192 188 188 180 187 190 220 231 228 252 251 226 190 181 217 274 293 292 279 275 294 298 269 267 282 295 310 319 320 317 305 306 269 228 222 221 239
180 172 174 177 179 180 179 171 166 168 161 181 223 254 249 257 260 234 202 197 208 237 270 287 293 295 297 298 273 253 260 279 297 304 310 317 322 321 311 273 241 221 219
156 164 171 170 169 159 154 156 156 160 170 195 217 261 279 279 269 255 233 226 216 213 242 268 285 295 298 299 292 284 285 287 284 296 304 310 313 314 315 310 288 263 238
155 161 168 167 170 167 165 171 170 174 184 195 204 228 260 271 278 275 242 234 226 218 242 261 278 290 301 304 302 299 298 286 263 261 272 282 284 290 309 328 351 358 348
164 165 163 173 186 179 169 175 173 186 192 198 210 221 237 248 254 250 243 242 252 266 278 297 308 312 306 295 304 307 291 274 258 255 265 276 289 305 325 333 327 345 359
159 154 168 174 171 166 156 189 199 208 205 200 211 207 209 233 244 224 210 219 224 228 248 326 332 325 322 321 315 306 298 288 266 261 259 272 286 313 327 332 330 348 330
164 175 190 188 182 177 168 160 341 231 224 218 211 206 219 222 215 212 219 223 229 201 158 227 264 275 279 289 296 306 309 302 285 271 261 258 266 275 288 305 292 264 287
185 195 199 194 186 188 191 189 222 339 22 258 224 210 210 210 206 201 198 185 172 156 176 234 250 258 265 272 276 278 284 293 296 289 277 269 267 271 272 274 267 257 266
189 206 199 207 204 200 204 206 199 203 235 315 307 245 221 204 204 202 183 124 83 167 232 238 253 259 261 266 271 273 278 286 291 286 276 271 269 270 274 273 261 256 260
181 191 189 190 192 202 204 202 203 204 200 230 295 300 262 175 156 211 183 177 211 237 243 243 248 253 258 262 266 263 260 263 268 264 263 264 265 269 269 264 258 254 253
182 191 176 163 158 169 170 179 192 184 192 200 226 251 249 113 152 245 233 226 225 234 239 242 244 246 249 253 257 256 253 256 262 264 269 271 266 258 259 263 259 253 251
178 178 169 157 163 180 183 189 191 186 200 216 235 238 206 210 219 231 241 240 238 240 240 242 243 246 247 248 249 248 250 256 256 255 259 266 269 269 270 267 264 254 251
168 170 175 185 182 193 199 196 201 212 218 219 240 248 220 228 235 242 246 249 246 245 245 243 249 253 253 250 246 241 244 251 257 256 258 261 261 263 264 265 267 266 261
161 168 177 195 200 203 204 206 209 222 230 231 235 238 227 232 239 244 250 254 250 249 249 247 252 258 258 255 248 240 242 248 251 251 252 254 255 255 257 259 259 262 262
178 188 197 206 203 198 204 213 222 230 230 228 232 234 233 234 240 247 250 252 249 249 247 247 252 257 259 260 255 249 247 251 253 250 245 249 252 252 253 257 256 255 250
192 192 197 201 205 212 218 222 225 228 228 230 233 237 240 241 244 247 248 249 252 254 255 252 251 254 254 255 256 259 261 256 254 255 248 243 245 247 249 252 251 253 247
208 206 210 210 212 213 215 222 228 232 233 234 235 241 244 245 247 249 250 251 254 259 262 261 259 259 259 257 262 268 263 259 261 259 249 243 243 246 249 249 248 247 245